This is the latest recevied weather packets stored in our database for station/object KBTL-WX. If no packets are shown the sender has not sent any weather packets the latest 10 day(s).
| Time | Temp. | Humidity | Pressure | Rain* | Wind** | Luminosity | Snow |
|---|---|---|---|---|---|---|---|
| 1777766433 | 7.22° C | 42% | 984.1 hPa | 0 mm | - | - | - |
| 1777765514 | 7.78° C | 38% | 983.9 hPa | 0 mm | - | - | - |
| 1777764625 | 7.78° C | 39% | 984 hPa | 0 mm | - | - | - |
| 1777763714 | 7.78° C | 39% | 984 hPa | 0 mm | - | - | - |
| 1777762837 | 8.33° C | 39% | 984 hPa | 0 mm | - | - | - |
| 1777761913 | 8.33° C | 39% | 984.5 hPa | 0 mm | - | - | - |
| 1777761031 | 8.33° C | 40% | 985.1 hPa | 0 mm | - | - | - |
| 1777760114 | 8.33° C | 40% | 985.1 hPa | 0 mm | - | - | - |
| 1777759234 | 8.33° C | 40% | 985.1 hPa | 0 mm | - | - | - |
| 1777758314 | 8.33° C | 36% | 985.2 hPa | 0 mm | - | - | - |
| 1777757432 | 8.89° C | 36% | 984.8 hPa | 0 mm | - | - | - |
| 1777756513 | 8.89° C | 36% | 984.8 hPa | 0 mm | - | - | - |
| 1777755637 | 8.89° C | 36% | 984.8 hPa | 0 mm | - | - | - |
| 1777754713 | 8.89° C | 39% | 985.2 hPa | 0 mm | - | - | - |
| 1777753831 | 8.89° C | 37% | 985.5 hPa | 0 mm | - | - | - |
| 1777752913 | 8.89° C | 37% | 985.5 hPa | 0 mm | - | - | - |
| 1777752035 | 8.33° C | 37% | 985.5 hPa | 0 mm | - | - | - |
| 1777751113 | 7.78° C | 42% | 985.6 hPa | 0 mm | - | - | - |
| 1777750226 | 7.78° C | 42% | 985.6 hPa | 0 mm | - | - | - |
| 1777749313 | 8.33° C | 42% | 985.7 hPa | 0 mm | - | - | - |
| 1777748436 | 7.78° C | 42% | 985.7 hPa | 0 mm | - | - | - |
| 1777747513 | 7.22° C | 44% | 985.3 hPa | 0 mm | - | - | - |
| 1777746632 | 7.22° C | 44% | 985.5 hPa | 0 mm | - | - | - |
| 1777745713 | 7.78° C | 44% | 985.5 hPa | 0 mm | - | - | - |
| 1777744838 | 7.78° C | 44% | 985.5 hPa | 0 mm | - | - | - |
* Rain latest hour (hover to see other rain measurements)
** Current wind speed in m/s (hover to see current wind gust speed)